Vorticity
8 8 8 8 8 9 10 12 12 11 9 7 6 6 7 8 9 10 12 15 20 23 25 26 22 17 13 10 8 5 1 1 4 7 8 6 4 5 7 10 10 10 11 14 18 24 27 23 16 13 13 12 11 12 15 21 27 29 30 28 27 26 27 26 24 22 20 18 18
8 8 8 7 8 9 10 12 12 11 10 8 7 6 7 8 9 10 12 15 19 23 26 27 24 18 12 9 6 1 -3 -4 0 4 6 5 3 3 6 10 11 11 11 14 18 22 24 21 17 15 15 14 13 12 13 17 21 25 27 28 28 27 26 23 20 18 16 14 14
8 8 8 7 8 9 10 12 12 11 10 8 7 6 7 8 10 11 12 13 16 22 28 30 25 19 12 8 5 -1 -6 -7 -3 -0 2 4 3 2 4 10 11 11 11 14 17 20 22 20 18 19 19 18 16 15 15 16 17 19 20 22 23 22 19 17 14 12 11 11 13
8 8 8 7 8 9 10 11 12 11 10 7 6 6 7 8 10 11 12 11 14 21 28 32 28 20 12 6 3 -2 -6 -8 -6 -3 -0 2 2 2 3 8 12 11 10 12 16 19 20 20 18 19 20 19 17 17 17 19 17 16 16 17 17 16 14 12 10 9 9 11 14
8 8 8 7 8 9 10 11 12 11 10 8 6 6 7 9 10 11 11 11 14 20 27 34 32 24 14 5 2 -2 -5 -6 -6 -5 -3 -0 2 2 2 6 11 11 9 10 14 17 20 21 18 17 18 18 17 16 17 20 19 18 18 18 19 19 17 15 12 10 9 10 12
8 8 8 8 8 8 10 11 12 11 10 8 7 7 8 9 10 11 12 13 13 16 23 32 36 32 21 9 2 -3 -5 -6 -5 -4 -4 -2 1 1 0 2 10 11 9 7 11 15 19 22 18 16 14 15 15 15 15 16 19 21 24 26 26 26 24 20 15 12 11 10 10
8 8 8 8 8 8 9 11 11 11 10 8 7 7 8 9 10 11 12 11 11 13 18 27 35 36 31 20 8 0 -4 -6 -5 -4 -3 -2 0 -0 -1 -0 7 11 10 6 7 11 16 21 19 16 13 14 16 15 14 14 18 23 27 30 29 27 23 18 16 16 17 18 13
8 8 8 8 8 8 9 10 11 11 10 9 8 7 8 8 10 11 11 11 12 13 15 21 30 35 35 29 19 9 0 -5 -5 -4 -3 -2 -1 -1 -2 -2 5 10 11 7 5 7 10 15 18 16 14 15 18 18 16 15 17 22 26 27 23 19 16 15 17 21 25 25 15
8 8 8 8 8 8 9 10 11 11 10 9 8 7 8 9 10 10 11 12 11 12 13 18 25 31 34 34 28 20 10 -0 -4 -4 -3 -2 -2 -3 -3 -3 2 8 11 9 5 4 6 10 13 14 14 16 20 20 18 15 16 18 20 20 15 12 11 12 15 20 24 23 17
8 8 8 8 8 8 8 9 10 11 11 9 8 7 8 9 10 11 12 11 10 11 13 16 20 25 30 33 32 29 22 10 0 -3 -3 -2 -3 -3 -3 -3 1 7 11 10 6 5 6 8 11 12 13 16 21 21 18 15 14 14 14 13 9 7 7 7 8 9 13 18 19
8 8 8 8 8 8 8 9 10 11 11 9 8 7 8 9 11 11 11 10 10 11 13 14 18 21 25 29 30 31 29 22 9 1 -2 -2 -3 -2 -2 -1 1 6 11 12 7 6 7 10 13 15 16 19 21 20 17 13 11 11 10 9 6 4 3 3 0 -2 2 14 18
8 8 8 8 8 8 9 9 10 11 11 9 8 7 8 9 11 11 11 10 11 11 12 14 17 20 22 25 26 28 30 30 18 8 1 -1 -1 -1 -0 0 2 6 10 13 8 7 8 11 15 19 22 25 25 21 15 10 10 9 9 8 6 5 3 2 -0 -1 2 8 11
8 8 8 8 8 9 9 9 10 11 10 9 8 7 8 9 10 11 11 11 11 10 11 13 17 20 22 23 23 25 27 30 24 15 7 2 1 1 1 1 2 5 10 14 10 7 7 9 13 19 24 27 25 20 14 10 10 10 10 9 9 9 8 7 6 7 9 10 8
8 8 8 8 9 9 9 10 10 11 10 9 8 7 7 9 10 12 12 12 11 10 11 12 16 20 22 23 22 22 24 26 24 19 13 8 5 2 1 2 2 5 8 14 11 8 6 7 10 15 19 19 15 12 10 11 14 15 14 12 12 13 16 17 17 18 19 20 15
8 8 8 8 9 9 9 10 10 11 10 9 8 7 7 9 10 12 12 12 11 11 10 11 15 19 23 24 23 22 22 22 21 20 17 14 10 5 2 2 3 4 7 13 12 9 5 5 6 10 12 11 4 1 3 10 17 19 19 18 17 20 23 26 27 27 27 26 20
7 8 8 9 9 9 9 10 10 11 11 9 7 7 7 8 10 11 12 12 12 11 11 11 14 18 22 26 25 23 22 21 19 18 18 18 14 10 6 4 3 3 5 10 12 10 6 4 4 6 8 9 3 1 3 11 16 18 18 18 20 22 25 27 27 26 25 22 18
7 8 8 9 9 9 10 10 11 11 11 9 7 7 7 8 10 11 12 12 12 12 11 11 13 16 21 25 26 25 23 22 18 16 15 18 18 16 11 7 4 3 4 6 11 11 8 5 5 5 7 9 7 6 8 13 15 14 12 12 15 17 18 17 16 15 13 11 11
7 8 8 9 9 10 10 10 11 11 11 9 7 7 7 8 10 11 12 12 12 12 11 11 12 15 19 24 27 26 25 23 20 14 11 12 18 19 17 11 6 3 2 3 9 10 9 7 6 6 7 10 10 8 7 9 11 10 9 8 10 10 9 6 5 4 3 3 3
7 8 8 9 10 10 10 10 11 11 11 9 7 6 7 8 9 11 12 12 13 12 11 11 11 14 18 23 26 27 27 26 22 15 8 4 11 16 19 17 10 5 2 1 6 8 9 8 7 6 6 10 12 10 7 3 4 4 5 6 7 7 5 3 1 0 -0 -0 0
7 8 8 9 10 10 10 11 11 12 11 10 8 7 6 7 9 10 11 12 13 13 12 11 11 12 16 21 26 29 29 28 25 18 8 -2 1 8 15 20 16 9 3 -0 2 4 6 8 8 6 6 7 12 13 10 4 -0 -1 -1 1 2 3 3 2 1 0 -1 -1 -0
7 8 8 9 10 10 11 11 12 12 11 10 8 7 6 7 9 10 11 11 12 13 13 12 11 11 13 17 24 28 31 31 29 22 12 -3 -5 -1 6 16 19 15 7 1 0 0 2 5 7 7 6 5 9 12 13 10 3 -1 -4 -4 -2 -1 0 1 -0 -1 -1 -2 -2
7 7 8 9 10 10 11 11 12 12 11 10 8 7 6 7 8 10 10 11 12 13 13 13 12 11 12 14 20 25 30 34 33 27 17 2 -7 -11 -9 0 12 16 13 6 1 -1 -1 1 5 7 7 6 6 9 12 14 11 5 0 -3 -4 -3 -2 -1 -1 -1 -1 -2 -2
7 7 8 9 9 10 11 12 12 12 11 10 8 7 6 7 8 9 10 10 12 13 13 13 13 12 11 12 16 21 27 33 36 32 24 13 -2 -13 -19 -18 -6 6 13 12 4 -0 -2 0 4 6 8 7 6 7 9 12 14 12 9 4 0 -2 -2 -2 -1 -1 -1 -0 -0
7 7 8 9 10 10 11 11 12 12 12 11 9 7 6 6 7 8 9 10 11 12 13 14 14 13 12 11 13 16 21 28 34 36 33 25 11 -2 -14 -22 -20 -8 7 13 5 1 0 2 4 6 8 8 8 7 8 9 11 13 13 12 7 4 0 -1 -2 -2 -1 -1 0
7 7 8 9 10 10 11 11 12 12 12 11 9 8 6 6 7 7 9 10 11 12 13 14 14 14 13 12 12 13 17 22 29 34 37 35 26 14 1 -11 -21 -16 -4 9 3 2 4 6 7 7 7 7 8 9 9 9 10 10 11 11 10 8 6 2 0 -2 -2 -2 -1
7 8 8 9 10 10 11 11 12 12 12 11 10 8 7 6 6 7 8 9 10 11 12 13 14 15 14 13 12 12 14 17 22 29 34 38 34 27 18 8 -7 -16 -15 -1 -0 2 5 8 8 7 6 6 7 8 10 11 11 11 10 9 8 7 6 5 3 2 1 0 0
7 8 8 9 10 10 11 11 12 12 12 11 10 9 7 6 6 7 7 9 9 10 11 13 14 15 15 14 13 12 12 14 17 22 28 34 36 34 29 23 11 -7 -19 -14 -5 1 4 6 7 7 6 6 6 8 10 13 14 15 14 13 10 8 6 5 5 5 5 5 6
7 8 8 9 10 10 10 11 11 12 12 12 11 9 8 6 6 6 7 8 8 9 10 12 13 14 15 15 13 13 12 12 14 17 22 28 33 35 34 31 24 6 -11 -21 -9 -2 1 4 5 6 6 7 9 11 13 15 17 18 19 19 17 15 12 10 9 9 9 9 10
7 8 8 9 10 10 10 11 11 12 12 12 11 9 8 7 7 6 7 7 8 9 10 11 12 13 14 15 14 13 12 12 12 14 17 22 28 34 37 37 33 20 2 -18 -13 -6 -0 2 4 5 6 8 11 15 18 20 21 22 21 21 21 20 18 16 14 13 11 11 10
7 8 9 9 10 10 10 11 11 11 12 12 11 10 9 7 7 6 6 7 7 8 9 9 11 12 14 15 15 14 13 12 11 11 13 16 22 29 35 39 39 31 16 -7 -15 -12 -6 -2 1 2 4 6 10 16 21 26 27 26 25 23 22 21 20 18 16 14 12 10 9
7 8 8 9 10 10 10 10 11 11 11 12 11 10 9 8 7 7 6 6 7 7 8 9 10 12 13 15 15 15 14 13 12 11 11 12 16 21 28 35 40 39 29 8 -10 -16 -12 -2 -2 -1 1 2 5 11 19 27 30 30 27 25 24 22 21 20 19 17 15 13 11
7 7 8 9 10 10 10 10 10 11 11 11 11 11 10 9 8 7 6 6 6 7 7 8 9 10 12 14 15 16 16 15 13 12 11 10 12 15 20 27 35 39 38 26 4 -12 -18 -7 -4 -2 -1 -0 -1 3 12 24 30 30 28 24 24 23 23 23 22 21 20 18 16
7 7 8 9 10 10 10 10 10 11 11 11 11 11 11 10 9 7 7 6 6 6 7 8 8 9 11 13 15 16 17 17 16 14 13 11 11 12 14 19 27 34 39 37 20 0 -15 -17 -6 -1 0 1 -3 -2 4 16 26 28 27 24 23 23 23 24 24 24 23 22 20
7 7 8 9 10 10 10 11 10 11 11 11 11 11 11 10 9 8 7 7 6 6 7 7 8 8 9 11 13 15 17 18 18 17 15 14 12 12 12 14 19 26 33 39 32 16 -3 -20 -8 -0 3 4 0 -2 -1 7 18 24 24 22 20 20 21 22 22 23 23 23 22
7 7 8 8 9 10 10 11 11 11 11 11 11 11 11 10 10 9 8 7 6 6 7 7 8 8 9 10 11 13 15 17 18 19 18 17 15 14 13 13 15 19 25 32 34 28 14 -8 -6 1 7 8 5 1 -1 2 11 17 19 19 17 17 17 18 20 21 22 22 23
7 7 7 8 9 9 10 11 11 11 11 11 11 11 11 11 10 10 8 7 6 6 6 7 7 8 8 9 10 12 13 16 17 19 19 20 19 17 16 15 15 16 19 23 27 28 23 10 2 3 9 12 10 6 3 2 7 11 14 15 14 14 14 15 16 17 18 19 21
7 7 7 8 8 9 10 11 11 11 11 11 11 11 11 11 10 10 9 8 7 7 6 6 7 8 8 9 10 10 12 13 15 17 19 20 21 20 19 17 17 17 18 19 21 22 22 19 9 7 10 13 13 10 6 3 6 9 11 11 12 12 12 13 13 13 14 15 17
7 7 7 7 8 9 9 10 11 11 11 11 11 11 11 10 10 10 9 9 8 7 6 6 7 8 8 9 9 10 11 12 13 15 17 18 20 21 21 20 19 19 18 18 18 18 18 17 12 10 10 13 14 12 8 5 6 9 11 11 10 10 10 11 11 11 11 11 12
7 7 7 7 8 8 9 10 10 11 11 11 11 11 11 10 10 10 10 9 9 8 7 6 7 7 8 8 9 9 10 11 12 13 15 16 18 20 21 21 21 20 19 19 18 17 16 16 14 12 11 11 13 12 10 6 7 10 13 12 10 9 9 10 10 10 9 9 9
7 7 7 7 8 8 8 9 10 10 11 11 11 11 11 10 10 10 10 10 9 8 7 7 6 7 7 8 8 9 10 10 11 12 13 14 15 17 19 21 21 21 20 19 18 18 17 17 16 14 12 11 12 12 11 8 8 11 15 15 12 10 9 9 10 10 10 9 8
7 7 7 8 8 8 8 9 9 10 10 10 11 11 11 11 10 10 10 10 9 9 8 7 6 6 6 7 8 8 9 10 10 11 11 12 13 15 16 19 20 20 20 19 18 18 17 17 17 16 15 13 13 12 11 8 6 9 14 18 16 13 10 9 11 12 11 10 9
Height
3059 3057 3054 3051 3049 3046 3043 3040 3036 3033 3030 3027 3023 3020 3016 3013 3010 3006 3003 2999 2996 2993 2990 2987 2985 2982 2980 2979 2977 2975 2973 2970 2968 2966 2964 2961 2959 2956 2953 2950 2948 2944 2941 2937 2933 2929 2926 2923 2920 2918 2915 2912 2909 2907 2904 2902 2900 2898 2896 2895 2894 2892 2892 2891 2890 2890 2890 2890 2890
3058 3055 3053 3050 3047 3044 3041 3038 3035 3031 3028 3025 3022 3019 3015 3012 3009 3005 3002 2998 2995 2992 2989 2986 2984 2982 2980 2978 2976 2975 2972 2970 2968 2965 2963 2961 2959 2956 2953 2950 2948 2945 2941 2937 2933 2929 2926 2923 2921 2918 2915 2913 2910 2908 2905 2903 2901 2899 2897 2896 2895 2894 2893 2892 2892 2891 2891 2891 2891
3057 3054 3051 3048 3045 3042 3040 3036 3034 3030 3027 3024 3021 3018 3014 3011 3008 3004 3001 2998 2994 2991 2988 2985 2983 2981 2979 2978 2976 2974 2972 2970 2967 2965 2963 2960 2958 2955 2953 2950 2948 2945 2941 2937 2933 2930 2926 2924 2921 2919 2916 2914 2911 2909 2906 2904 2902 2900 2899 2897 2896 2895 2894 2893 2893 2892 2892 2892 2892
3055 3053 3050 3047 3045 3042 3039 3036 3033 3030 3026 3023 3020 3017 3014 3010 3007 3003 3000 2997 2994 2990 2987 2985 2982 2980 2978 2977 2975 2973 2971 2969 2967 2965 2963 2960 2958 2955 2953 2950 2948 2945 2942 2938 2934 2930 2927 2925 2922 2920 2917 2915 2912 2910 2907 2905 2904 2902 2900 2899 2897 2896 2895 2895 2894 2893 2893 2893 2893
3054 3051 3049 3046 3044 3041 3038 3035 3032 3029 3026 3022 3019 3016 3013 3009 3006 3002 2999 2996 2993 2990 2987 2984 2981 2979 2977 2976 2975 2973 2971 2969 2967 2965 2962 2960 2958 2955 2953 2950 2948 2945 2942 2938 2934 2931 2928 2925 2923 2920 2918 2915 2913 2910 2908 2906 2905 2903 2901 2900 2898 2897 2896 2895 2895 2894 2894 2894 2894
3053 3050 3048 3045 3042 3039 3036 3034 3031 3028 3025 3022 3018 3015 3011 3008 3005 3002 2999 2995 2992 2989 2986 2983 2980 2978 2976 2975 2974 2972 2970 2969 2966 2964 2962 2960 2958 2955 2952 2950 2948 2945 2942 2939 2935 2932 2929 2926 2924 2921 2919 2916 2914 2912 2910 2907 2906 2904 2902 2901 2900 2898 2897 2897 2896 2895 2895 2895 2895
3052 3050 3047 3044 3041 3038 3035 3033 3030 3027 3024 3021 3018 3014 3011 3008 3004 3001 2998 2995 2992 2989 2985 2983 2980 2977 2975 2974 2972 2971 2970 2968 2966 2964 2962 2960 2958 2955 2952 2950 2948 2945 2943 2940 2935 2932 2930 2927 2925 2922 2920 2917 2915 2913 2911 2909 2907 2905 2904 2902 2901 2900 2899 2898 2897 2897 2897 2897 2897
3051 3049 3046 3043 3040 3037 3035 3032 3029 3026 3023 3020 3017 3014 3010 3007 3004 3001 2997 2994 2991 2988 2985 2982 2979 2977 2974 2972 2971 2970 2969 2967 2965 2964 2961 2960 2957 2955 2952 2950 2948 2945 2943 2940 2936 2933 2930 2928 2925 2923 2920 2918 2916 2914 2912 2910 2909 2907 2905 2904 2903 2901 2900 2900 2899 2899 2899 2899 2898
3050 3047 3045 3042 3039 3036 3034 3031 3028 3025 3022 3019 3016 3013 3010 3006 3003 3000 2997 2994 2991 2988 2985 2981 2979 2976 2974 2971 2970 2969 2968 2966 2965 2963 2961 2959 2957 2955 2952 2950 2948 2945 2943 2940 2936 2933 2930 2928 2926 2924 2922 2920 2918 2915 2914 2912 2910 2909 2907 2906 2905 2903 2902 2901 2901 2900 2900 2900 2899
3050 3047 3044 3041 3038 3035 3033 3030 3027 3025 3022 3019 3015 3012 3009 3006 3003 3000 2996 2994 2990 2987 2984 2981 2978 2975 2973 2970 2969 2967 2966 2965 2964 2962 2960 2959 2957 2955 2952 2950 2948 2945 2943 2940 2937 2934 2932 2930 2928 2925 2923 2921 2919 2917 2915 2913 2912 2910 2909 2908 2906 2905 2904 2903 2903 2903 2902 2901 2900
3049 3046 3043 3040 3038 3035 3032 3029 3026 3024 3021 3018 3015 3012 3009 3005 3002 2999 2996 2993 2990 2987 2984 2980 2978 2975 2972 2970 2968 2966 2965 2964 2963 2961 2960 2958 2956 2955 2952 2950 2948 2946 2944 2941 2938 2935 2933 2931 2930 2927 2925 2922 2920 2918 2916 2915 2913 2912 2910 2909 2908 2907 2906 2905 2905 2904 2903 2902 2901
3048 3045 3042 3040 3037 3034 3031 3029 3026 3023 3020 3017 3014 3011 3008 3005 3002 2999 2996 2992 2990 2986 2983 2980 2977 2974 2972 2969 2967 2965 2964 2963 2962 2961 2959 2957 2956 2954 2953 2950 2948 2946 2944 2942 2939 2936 2934 2933 2931 2929 2927 2924 2922 2920 2918 2916 2915 2913 2911 2910 2909 2908 2907 2906 2906 2905 2905 2904 2903
3047 3044 3041 3039 3036 3033 3030 3028 3025 3022 3020 3017 3014 3011 3008 3005 3002 2999 2995 2992 2989 2986 2983 2980 2977 2974 2971 2969 2966 2964 2963 2962 2961 2960 2958 2957 2955 2954 2953 2951 2949 2947 2945 2942 2940 2937 2935 2934 2932 2931 2929 2927 2924 2922 2919 2917 2916 2914 2913 2912 2910 2910 2908 2907 2907 2906 2905 2905 2904
3046 3043 3040 3038 3035 3032 3030 3027 3025 3022 3019 3016 3013 3010 3007 3004 3001 2998 2995 2992 2989 2986 2983 2980 2977 2974 2971 2968 2966 2964 2962 2961 2960 2959 2958 2956 2955 2954 2952 2951 2949 2947 2945 2943 2940 2938 2936 2935 2933 2932 2930 2929 2927 2924 2922 2919 2917 2916 2914 2913 2912 2910 2909 2908 2907 2907 2906 2905 2905
3045 3042 3040 3037 3034 3032 3029 3027 3024 3021 3019 3016 3013 3010 3007 3004 3001 2998 2995 2992 2989 2986 2983 2980 2977 2974 2971 2968 2966 2964 2962 2960 2959 2958 2957 2956 2954 2953 2952 2950 2949 2947 2945 2943 2941 2939 2937 2935 2934 2933 2931 2930 2928 2926 2924 2922 2920 2918 2916 2915 2913 2912 2910 2909 2908 2907 2907 2906 2906
3044 3041 3039 3036 3034 3031 3029 3026 3024 3021 3018 3015 3012 3009 3006 3004 3000 2997 2995 2991 2989 2985 2983 2980 2977 2974 2971 2968 2965 2963 2961 2960 2959 2958 2956 2955 2954 2952 2951 2950 2949 2947 2945 2943 2941 2939 2937 2936 2934 2933 2932 2930 2929 2928 2926 2924 2922 2920 2918 2916 2915 2913 2912 2911 2910 2909 2908 2907 2907
3043 3040 3038 3035 3033 3030 3028 3025 3023 3020 3017 3015 3012 3009 3006 3003 3000 2997 2994 2991 2988 2985 2982 2980 2977 2974 2970 2968 2965 2963 2961 2960 2958 2957 2956 2955 2953 2952 2950 2949 2948 2947 2945 2943 2941 2940 2938 2936 2935 2934 2932 2931 2930 2928 2926 2925 2924 2922 2920 2918 2916 2915 2914 2912 2911 2910 2909 2908 2907
3042 3040 3037 3035 3032 3030 3027 3025 3022 3020 3017 3014 3011 3009 3006 3003 3000 2997 2994 2991 2988 2985 2982 2980 2977 2974 2971 2968 2965 2963 2961 2959 2958 2957 2956 2955 2953 2951 2950 2949 2947 2946 2945 2943 2941 2940 2938 2936 2935 2934 2933 2931 2930 2929 2927 2925 2924 2923 2921 2920 2918 2916 2915 2914 2912 2911 2910 2909 2908
3042 3039 3036 3034 3031 3029 3027 3024 3022 3019 3016 3014 3011 3008 3005 3002 3000 2997 2994 2991 2988 2985 2982 2980 2977 2974 2971 2968 2965 2963 2960 2959 2957 2956 2955 2954 2953 2951 2950 2948 2947 2945 2944 2943 2941 2940 2938 2936 2935 2934 2933 2931 2930 2929 2928 2926 2925 2923 2922 2920 2919 2918 2916 2915 2914 2912 2911 2910 2909
3041 3038 3036 3033 3031 3029 3026 3024 3021 3019 3016 3013 3010 3008 3005 3002 2999 2996 2993 2990 2988 2985 2982 2980 2977 2974 2971 2968 2965 2963 2960 2959 2957 2956 2955 2954 2953 2951 2949 2948 2946 2945 2944 2943 2941 2940 2938 2936 2935 2934 2933 2931 2930 2930 2928 2927 2925 2924 2922 2921 2920 2918 2917 2916 2915 2913 2912 2911 2910
3040 3038 3035 3033 3030 3028 3025 3023 3020 3018 3015 3013 3010 3007 3005 3002 2999 2996 2993 2991 2988 2985 2982 2979 2976 2974 2971 2968 2965 2963 2960 2958 2956 2955 2954 2954 2952 2951 2949 2948 2946 2944 2943 2942 2941 2940 2938 2937 2935 2934 2932 2931 2930 2930 2929 2927 2926 2924 2923 2921 2920 2919 2917 2916 2915 2914 2913 2912 2910
3040 3037 3035 3032 3030 3027 3025 3022 3020 3018 3015 3012 3010 3007 3004 3002 2999 2996 2993 2990 2988 2985 2982 2980 2977 2974 2971 2968 2965 2963 2960 2958 2956 2955 2954 2953 2952 2951 2949 2947 2945 2944 2943 2942 2940 2939 2938 2937 2935 2934 2932 2931 2930 2929 2928 2927 2926 2925 2923 2922 2920 2919 2917 2916 2915 2914 2913 2912 2911
3039 3036 3034 3032 3029 3027 3024 3022 3020 3017 3015 3012 3009 3007 3004 3001 2999 2996 2993 2990 2988 2985 2982 2980 2977 2974 2971 2969 2966 2963 2960 2958 2956 2955 2953 2952 2951 2950 2949 2947 2946 2944 2943 2942 2940 2938 2938 2936 2935 2934 2932 2931 2929 2928 2927 2926 2925 2924 2923 2922 2920 2919 2918 2916 2915 2914 2913 2911 2910
3038 3036 3033 3031 3028 3026 3024 3021 3019 3016 3014 3011 3009 3007 3004 3001 2999 2996 2993 2990 2988 2985 2982 2980 2977 2974 2971 2969 2966 2963 2960 2958 2956 2954 2953 2952 2950 2950 2948 2947 2946 2945 2944 2942 2939 2938 2937 2936 2935 2933 2932 2930 2929 2927 2926 2925 2924 2923 2922 2921 2920 2919 2917 2916 2915 2914 2912 2911 2910
3038 3035 3033 3030 3028 3025 3023 3021 3019 3016 3014 3011 3009 3006 3004 3001 2999 2996 2993 2990 2988 2985 2982 2980 2977 2975 2972 2969 2966 2964 2961 2958 2956 2954 2952 2951 2950 2949 2948 2947 2946 2945 2945 2944 2939 2937 2936 2935 2934 2933 2931 2930 2928 2927 2925 2924 2923 2921 2920 2919 2918 2917 2916 2915 2914 2913 2912 2911 2910
3037 3035 3032 3030 3028 3025 3023 3020 3018 3016 3014 3011 3008 3006 3003 3001 2999 2996 2993 2990 2988 2985 2982 2980 2977 2975 2972 2969 2967 2964 2961 2959 2956 2954 2952 2950 2949 2948 2947 2946 2946 2945 2945 2945 2940 2936 2935 2935 2933 2932 2930 2929 2928 2926 2925 2923 2921 2920 2919 2918 2916 2916 2915 2914 2913 2912 2911 2910 2909
3037 3034 3032 3030 3027 3025 3023 3020 3018 3015 3013 3010 3008 3006 3003 3001 2998 2996 2993 2990 2988 2985 2983 2980 2977 2975 2972 2970 2967 2964 2961 2959 2956 2954 2952 2950 2949 2947 2946 2946 2945 2945 2944 2944 2940 2937 2935 2934 2933 2931 2930 2928 2927 2925 2924 2922 2921 2919 2918 2916 2915 2914 2913 2912 2911 2910 2910 2909 2908
3036 3034 3032 3029 3027 3025 3022 3020 3018 3015 3013 3010 3008 3005 3003 3001 2998 2996 2993 2991 2988 2985 2983 2980 2978 2975 2972 2970 2967 2965 2962 2959 2957 2954 2952 2950 2948 2947 2946 2945 2944 2944 2942 2941 2941 2938 2935 2933 2932 2930 2929 2928 2926 2924 2923 2921 2920 2918 2916 2915 2914 2912 2911 2910 2909 2909 2908 2907 2906
3036 3034 3031 3029 3026 3024 3022 3020 3017 3015 3013 3010 3008 3005 3003 3000 2998 2996 2993 2990 2988 2985 2983 2980 2978 2975 2972 2970 2967 2965 2962 2960 2957 2955 2952 2950 2948 2947 2945 2944 2943 2943 2942 2941 2941 2939 2935 2932 2931 2930 2928 2927 2925 2923 2921 2920 2918 2916 2915 2914 2912 2911 2910 2909 2908 2907 2906 2905 2904
3035 3033 3031 3029 3026 3024 3022 3019 3017 3015 3012 3010 3008 3005 3003 3000 2998 2995 2993 2990 2988 2985 2983 2980 2978 2975 2973 2970 2967 2965 2962 2960 2957 2955 2953 2951 2949 2947 2945 2944 2942 2942 2941 2940 2940 2939 2936 2933 2931 2929 2928 2926 2924 2922 2920 2918 2916 2915 2913 2912 2910 2910 2908 2907 2906 2905 2904 2903 2902
3035 3033 3030 3028 3026 3024 3021 3019 3017 3015 3012 3010 3007 3005 3002 3000 2998 2995 2993 2990 2988 2986 2983 2980 2978 2975 2973 2970 2968 2965 2963 2960 2958 2955 2953 2951 2949 2947 2945 2943 2942 2941 2940 2940 2939 2938 2937 2935 2931 2929 2927 2925 2924 2922 2920 2917 2915 2913 2912 2910 2909 2908 2906 2905 2904 2903 2902 2901 2900
3035 3032 3030 3028 3025 3023 3021 3019 3016 3014 3012 3010 3007 3005 3002 3000 2998 2995 2993 2990 2988 2985 2983 2980 2978 2975 2973 2970 2968 2966 2963 2961 2958 2956 2954 2951 2949 2947 2945 2943 2942 2941 2940 2939 2938 2938 2937 2935 2932 2930 2927 2925 2923 2921 2919 2917 2915 2913 2911 2909 2908 2906 2905 2904 2903 2901 2900 2900 2898
3034 3032 3030 3027 3025 3023 3021 3019 3016 3014 3012 3009 3007 3005 3002 3000 2998 2995 2993 2990 2988 2985 2983 2980 2978 2975 2973 2970 2968 2966 2964 2961 2959 2956 2954 2952 2950 2947 2945 2944 2942 2940 2940 2939 2938 2937 2936 2935 2933 2931 2928 2926 2924 2922 2920 2917 2915 2913 2911 2909 2907 2906 2904 2903 2901 2900 2899 2898 2897
3033 3031 3029 3027 3025 3023 3020 3018 3016 3014 3011 3009 3007 3004 3002 3000 2997 2995 2993 2990 2988 2986 2983 2981 2978 2976 2973 2971 2969 2966 2964 2962 2959 2957 2955 2952 2950 2948 2946 2944 2942 2941 2939 2938 2937 2936 2935 2935 2933 2931 2928 2926 2924 2922 2920 2918 2916 2914 2911 2910 2908 2906 2904 2903 2901 2900 2898 2897 2896
3033 3031 3029 3027 3025 3022 3020 3018 3016 3014 3011 3009 3006 3004 3002 3000 2997 2995 2993 2991 2988 2986 2983 2981 2978 2976 2973 2971 2969 2966 2964 2962 2960 2957 2955 2953 2951 2949 2947 2945 2943 2941 2940 2938 2937 2936 2935 2934 2933 2931 2929 2926 2924 2922 2921 2919 2916 2914 2912 2910 2908 2906 2904 2903 2901 2899 2898 2896 2895
3032 3030 3028 3026 3024 3022 3020 3018 3015 3013 3011 3009 3006 3004 3002 3000 2997 2995 2993 2991 2988 2986 2984 2981 2978 2976 2973 2971 2969 2966 2964 2962 2960 2958 2955 2953 2951 2949 2947 2945 2944 2942 2940 2938 2937 2936 2935 2933 2932 2930 2928 2925 2924 2922 2920 2919 2917 2915 2912 2910 2908 2906 2905 2903 2901 2899 2897 2896 2894
3032 3030 3028 3026 3024 3022 3020 3017 3015 3013 3011 3008 3006 3004 3002 3000 2997 2995 2993 2990 2988 2986 2984 2981 2979 2976 2974 2971 2969 2966 2964 2962 2960 2958 2955 2954 2952 2950 2948 2946 2944 2942 2940 2939 2937 2936 2935 2933 2932 2930 2928 2925 2923 2921 2920 2919 2917 2915 2913 2910 2909 2907 2905 2903 2901 2899 2897 2895 2894
3031 3030 3028 3025 3023 3021 3019 3017 3015 3013 3010 3008 3006 3004 3002 2999 2997 2995 2993 2990 2988 2986 2984 2981 2979 2977 2974 2972 2969 2967 2965 2962 2960 2958 2955 2954 2952 2950 2948 2946 2945 2943 2941 2939 2938 2936 2934 2933 2931 2929 2927 2925 2923 2921 2920 2918 2916 2915 2913 2910 2909 2907 2905 2903 2901 2899 2897 2895 2894
3031 3029 3027 3025 3023 3021 3019 3017 3015 3012 3010 3008 3006 3004 3001 2999 2997 2995 2993 2990 2988 2986 2984 2982 2979 2977 2975 2972 2970 2967 2965 2962 2960 2958 2955 2954 2952 2950 2948 2946 2945 2943 2941 2939 2938 2936 2934 2932 2930 2928 2926 2924 2922 2920 2919 2918 2916 2914 2912 2910 2909 2907 2905 2903 2901 2899 2897 2895 2894
3030 3029 3027 3025 3023 3020 3018 3016 3014 3012 3010 3008 3006 3004 3001 2999 2997 2995 2993 2990 2988 2986 2984 2982 2980 2977 2975 2972 2970 2967 2965 2963 2960 2958 2956 2954 2952 2950 2948 2946 2945 2943 2941 2939 2938 2936 2934 2932 2930 2928 2926 2924 2922 2920 2918 2917 2915 2914 2912 2910 2908 2906 2904 2902 2900 2899 2897 2895 2893
3030 3028 3026 3025 3022 3020 3018 3016 3014 3012 3010 3008 3005 3004 3001 2999 2997 2995 2992 2990 2988 2986 2984 2982 2980 2977 2975 2972 2970 2967 2965 2963 2960 2958 2956 2954 2952 2950 2948 2946 2944 2943 2941 2939 2937 2935 2934 2932 2930 2928 2926 2923 2921 2919 2918 2916 2915 2914 2912 2910 2908 2906 2904 2902 2900 2898 2896 2895 2893